Aérodrome :
LOGIN :

S'inscrire | Disclaimer

   EN    FR    IT 

 










Légende :    VFR   VFR Marginal   IFR   IFR Intensif   IFR Très Intensif
Visi : 
Plafond : 
>= 8 km
>= 3000ft
5 à 8 km
1000 à 3000 ft
1500m à 5 km
500 à 1000 ft
800 à 1500m
200 à 500 ft
< 800m
< 200 ft
Symboles :   Orages  Brouillard  Fortes neiges  Fortes précipitations  Vent > 20 kt
SIGMETs :   Divers  Orages  Givrage  Turbulence  Onde Orograph.  Cendres Volcan.







- Altitude de l'aérodrome : 157 ft
- Code IATA : LIL
- Voir les cartes d'approche


LFQQ - Lille Lesquin

DERNIER METAR :
  • 200830Z AUTO 04004KT 8000 NSC M02/M04 Q1014 NOSIG

METARs EXPIRÉS :
  • 200800Z AUTO 04004KT 8000 FEW012 M02/M04 Q1014 NOSIG
  • 200730Z AUTO 03004KT 9000 NSC M02/M04 Q1014 NOSIG
  • 200700Z AUTO 03004KT 9999 FEW013 M02/M04 Q1013 NOSIG
  • 200630Z AUTO 04005KT 9999 BKN014 M01/M03 Q1013 BECMG NSC
  • 200600Z AUTO 05004KT 9999 BKN016 OVC021 M01/M03 Q1012 NOSIG

TAF TAF LFQQ
Valide du 20 à 06h jusqu'au 21 à 12h UTC


200500Z 2006/2112 06006KT 9999 OVC013
BECMG 2006/2008 NSC
ATIS : +33 3 20 16 19 54
Pas de NOTAMs connus pour ce terrain.



MET'MAP, la Météo Aéronautique d'un coup d'oeil ! - Copyright ORBIFLY Décembre 2007 - Disclaimer

ORBIFLY MET'MAP TEAM :

Programmation & Développement : Alexandra Zaïnal
Conception & Développement : Baudouin d'Aumeries
Co-Programmation & Développement : Marc-Olivier Méhu
Soutien technique & logistique : Manuel Goepfert

Contact : metmap@orbifly.com




SOURCES & CREDITS :

   NOAA